Russell, KS

11:22 AM CST on December 08, 2016 (GMT -0600)
Russell Municipal

Weather History for KRSL - January, 2014

Change the Weather History Date:

Tuesday, January 28, 2014

  Actual Average Record
Temperature  
Mean Temperature 17 °F -  
Max Temperature 27 °F 41 °F 75 °F (2013)
Min Temperature 7 °F 19 °F -4 °F (1951)
Degree Days  
Heating Degree Days 48    
Moisture  
Dew Point 1 °F    
Average Humidity 57    
Maximum Humidity 87    
Minimum Humidity 30    
Precipitation  
Precipitation 0.00 in - - ()
Sea Level Pressure  
Sea Level Pressure 30.42 in    
Wind  
Wind Speed 9 mph (WSW)    
Max Wind Speed 14 mph    
Max Gust Speed -    
Visibility 10 miles    
Events      
Averages and records for this station are not official NWS values.
T = Trace of Precipitation, MM = Missing Value Source: NWS Daily Summary

Daily Weather History Graph

Daily Weather History Graph

Search for Another Location

Airport or City:

Trip Planner

Search our weather history database for the weather conditions in past years. The results will help you decide how hot, cold, wet, or windy it might be!

Date:

Astronomy

Jan. 28, 2014 Rise Set
Actual Time 7:44 AM CST 5:52 PM CST
Civil Twilight 7:16 AM CST 6:20 PM CST
Nautical Twilight 6:44 AM CST 6:52 PM CST
Astronomical Twilight 6:12 AM CST 7:24 PM CST
Moon 5:27 AM CST (1/28) 3:44 PM CST (1/28)
Length of Visible Light 11h 04m
Length of Day
10h 07m
Waning Crescent, 7% of the Moon is Illuminated
Jan 28
Waning Crescent
Jan 30
New
Feb 6
First Quarter
Feb 14
Full
Feb 22
Last Quarter

Hourly Weather History & Observations

Time (CST) Temp. Windchill Dew Point Humidity Pressure Visibility Wind Dir Wind Speed Gust Speed Precip Events Conditions
12:53 AM 9.0 °F -0.9 °F -2.9 °F 59% 30.50 in 10.0 mi South 5.8 mph - N/A   Partly Cloudy
1:53 AM 9.0 °F -2.2 °F -2.9 °F 59% 30.48 in 10.0 mi South 6.9 mph - N/A   Clear
2:53 AM 7.0 °F -6.6 °F -2.9 °F 64% 30.47 in 10.0 mi South 9.2 mph - N/A   Clear
3:53 AM 7.0 °F -6.6 °F -2.0 °F 67% 30.46 in 10.0 mi SSW 9.2 mph - N/A   Partly Cloudy
4:53 AM 8.1 °F -7.0 °F 3.0 °F 80% 30.45 in 10.0 mi SSW 11.5 mph - N/A   Partly Cloudy
5:53 AM 10.0 °F -5.2 °F 6.1 °F 84% 30.44 in 10.0 mi SSW 12.7 mph - N/A   Partly Cloudy
6:53 AM 10.0 °F -4.5 °F 7.0 °F 87% 30.45 in 10.0 mi SW 11.5 mph - N/A   Mostly Cloudy
7:53 AM 10.9 °F -1.8 °F 6.1 °F 81% 30.48 in 10.0 mi West 9.2 mph - N/A   Mostly Cloudy
8:53 AM 12.0 °F -2.7 °F 6.1 °F 77% 30.50 in 10.0 mi NW 12.7 mph - N/A   Mostly Cloudy
9:53 AM 14.0 °F -0.8 °F 6.1 °F 71% 30.52 in 10.0 mi NW 13.8 mph - N/A   Mostly Cloudy
10:53 AM 18.0 °F 6.9 °F 3.9 °F 54% 30.50 in 10.0 mi NNW 9.2 mph - N/A   Scattered Clouds
11:53 AM 23.0 °F 12.4 °F -0.0 °F 37% 30.48 in 10.0 mi North 10.4 mph - N/A   Partly Cloudy
12:53 PM 23.0 °F 12.4 °F -0.0 °F 37% 30.46 in 10.0 mi WNW 10.4 mph - N/A   Partly Cloudy
1:53 PM 25.0 °F 15.5 °F -2.0 °F 31% 30.42 in 10.0 mi West 9.2 mph - N/A   Clear
2:53 PM 26.1 °F 16.2 °F -2.0 °F 30% 30.38 in 10.0 mi WNW 10.4 mph - N/A   Clear
3:53 PM 27.0 °F 15.6 °F -0.9 °F 30% 30.37 in 10.0 mi West 13.8 mph - N/A   Clear
4:53 PM 27.0 °F 18.7 °F -0.9 °F 30% 30.35 in 10.0 mi NW 8.1 mph - N/A   Clear
5:53 PM 21.0 °F 14.6 °F -2.0 °F 36% 30.34 in 10.0 mi NW 4.6 mph - N/A   Clear
6:53 PM 18.0 °F 12.7 °F -2.9 °F 40% 30.35 in 10.0 mi WSW 3.5 mph - N/A   Clear
7:53 PM 15.1 °F 6.4 °F -2.9 °F 45% 30.35 in 10.0 mi South 5.8 mph - N/A   Clear
8:53 PM 14.0 °F 2.9 °F 1.0 °F 56% 30.34 in 10.0 mi SSW 8.1 mph - N/A   Clear
9:53 PM 14.0 °F 2.0 °F 5.0 °F 67% 30.33 in 10.0 mi SW 9.2 mph - N/A   Clear
10:53 PM 12.0 °F 0.5 °F 5.0 °F 73% 30.32 in 10.0 mi SW 8.1 mph - N/A   Clear
11:53 PM 12.9 °F -0.9 °F 6.1 °F 74% 30.30 in 10.0 mi SW 11.5 mph - N/A   Clear